Location: Newark
(25.6108°S, 54.5803°W)
Time: 05:01:41
(UTC+00:00)

deb Explorer IX - Pass Details

Date: 27 October 2020
Orbit: 538 x 1104 km, 38.8° (Epoch: 29 November)

Event Time Altitude Azimuth Distance (km) Brightness Sun altitude
Rises 23:27:17 0° 240° (WSW) 2,988 ? -20.9°
Reaches altitude 10° 23:30:48 10° 215° (SW) 1,972 ? -21.6°
Maximum altitude 23:33:14 14° 182° (S) 1,652 ? -22.1°
Drops below altitude 10° 23:35:34 10° 148° (SSE) 1,865 ? -22.6°
Enters shadow 23:35:44 10° 146° (SSE) 1,899 ? -22.6°
Sets 23:38:43 0° 122° (ESE) 2,715 - -23.2°
